View from above orbital plane
|
View from above satellite
|
Ground track
|
The orbit data is extracted from the following two-line orbital elements,
1 24298U 96051B 21060.29999075 -.00000156 00000-0 -57912-4 0 9997
2 24298 70.8344 89.0390 0016901 322.3149 37.6786 14.12464810262629
Epoch (UTC): | 01 March 2021 07:11:59 |
Eccentricity: | 0.0016901 |
inclination: | 70.8344° |
perigee height: | 839 km |
apogee height: | 863 km |
right ascension of ascending node: | 89.0390° |
argument of perigee: | 322.3149° |
revolutions per day: | 14.12464810 |
mean anomaly at epoch: | 37.6786° |
orbit number at epoch: | 26262 |
The dashed part of the orbit path shows where the satellite is in the earth's shadow,
|
|